Location: Oregon Trail
(41.1872°N, 102.0741°W)
Time: 14:15:06
(UTC+00:00)

Tsikada Rocket - Visible Passes

Search period start: 18 February 2020 00:00
Search period end: 28 February 2020 00:00
Orbit: 958 x 1009 km, 82.9° (Epoch: 17 February)

Date Brightness Start Highest point End Pass type
(mag) Time Alt. Az. Time Alt. Az. Time Alt. Az.
18 Feb 4.2 02:03:15 10° N 02:09:36 77° W 02:15:59 10° S visible
18 Feb 7.0 03:53:04 10° WNW 03:54:02 10° WNW 03:54:59 10° W visible
19 Feb 4.7 00:46:05 10° NNE 00:51:40 31° ENE 00:57:14 10° SE visible
19 Feb 5.3 02:31:24 10° NNW 02:37:17 41° W 02:43:12 10° SSW visible
20 Feb 4.1 01:13:28 10° N 01:19:45 57° E 01:26:02 10° SSE visible
20 Feb 6.3 03:00:05 10° NW 03:04:47 22° W 03:09:29 10° SW visible
20 Feb 6.8 13:01:40 10° ESE 13:05:37 18° E 13:09:37 10° NE visible
21 Feb 4.2 01:41:15 10° N 01:47:38 79° W 01:54:01 10° S visible
21 Feb 7.1 03:30:40 10° WNW 03:32:04 11° WNW 03:33:28 10° W visible
22 Feb 5.3 02:09:23 10° NNW 02:15:19 42° W 02:21:16 10° SSW visible
23 Feb 4.2 00:51:29 10° N 00:57:46 56° E 01:04:02 10° SSE visible
23 Feb 6.4 02:38:03 10° NW 02:42:49 23° W 02:47:35 10° SW visible
23 Feb 6.9 12:39:45 10° ESE 12:43:38 18° E 12:47:34 10° NE visible
24 Feb 4.2 01:19:14 10° N 01:25:39 81° W 01:32:04 10° S visible
24 Feb 7.2 03:08:23 10° WNW 03:10:07 11° WNW 03:11:50 10° W visible
25 Feb 5.4 01:47:22 10° NNW 01:53:21 43° W 01:59:20 10° SSW visible
26 Feb 6.5 02:16:01 10° NW 02:20:51 23° W 02:25:43 10° SW visible
26 Feb 7.0 12:17:51 10° ESE 12:21:40 17° E 12:25:31 10° NE visible
27 Feb 4.3 00:57:16 10° N 01:03:41 82° W 01:10:06 10° S visible
27 Feb 7.3 02:46:10 10° WNW 02:48:09 12° WNW 02:50:09 10° W visible
27 Feb 6.0 12:43:40 10° SSE 12:49:04 33° E 12:54:34 10° NNE visible
